Regional Weather Roundup
Issued by NWS Albany, NY

Home | Current Version | Previous Version | Text Only | Print | Product List | Glossary On
Versions: 1 2 3 4 5 6 7 8 9 10 11 12 13 14 15 16 17 18 19 20 21 22 23 24 25 26 27
000
ASUS41 KALY 171010
RWRALY

NEW YORK STATE HOURLY WEATHER ROUNDUP
NATIONAL WEATHER SERVICE ALBANY NY
600 AM EDT THU APR 17 2014

NOTE: "FAIR" INDICATES FEW OR NO CLOUDS BELOW 12,000 FEET WITH NO
SIGNIFICANT WEATHER AND/OR NO OBSTRUCTIONS TO VISIBILITY.

NYZ032-033-038>043-046>054-057>066-NYZ062>081-171100-
EAST


CITY           SKY/WX    TMP DP  RH WIND       PRES   REMARKS
ALBANY         PTCLDY    26  18  71 CALM      30.70R
GLENS FALLS    CLEAR    N/A N/A N/A CALM      30.71R
POUGHKEEPSIE   CLEAR     27  20  75 CALM      30.67R
NEWBURGH       CLEAR     30  19  64 NE9       30.66  WCI  22
MONTGOMERY     CLEAR     27  18  69 N7        30.65S WCI  19
WHITE PLAINS   CLEAR     32  17  54 NE7       30.63S WCI  26
ISLIP          MOCLDY    33  21  61 NE9       30.63R WCI  25
NEW YORK CITY  PTCLDY    37  22  54 NE17      30.64R WCI  27
CENTRAL PARK   CLEAR     36  20  52 E9G17     30.66R WCI  29
$$

NYZ005>009-017-018-044>046-055-056-171100-
CENTRAL


CITY           SKY/WX    TMP DP  RH WIND       PRES   REMARKS
FULTON         CLEAR     25  15  66 VRB5      30.62R WCI  19
SYRACUSE       PTCLDY    24  19  81 E5        30.63R WCI  18
ROME           CLEAR     23  16  74 SE6       30.67R WCI  16
ELMIRA         CLEAR     23  16  74 CALM      30.57S
BINGHAMTON     CLEAR     24  14  65 E8        30.53F WCI  15
MONTICELLO     CLEAR     23  16  74 E6        30.60R WCI  16
$$

NYZ026>034-041>043-171100-
NORTH


CITY           SKY/WX    TMP DP  RH WIND       PRES   REMARKS
WATERTOWN      CLEAR     23  17  78 E5        30.64S WCI  17
FORT DRUM      NOT AVBL
MASSENA        CLEAR     22  19  89 CALM      30.70S
SARANAC LAKE   CLEAR     10   7  87 CALM      30.58F
PLATTSBURGH    CLEAR     20  16  84 CALM      30.72S
$$

NYZ001>004-010>016-019>021-171100-
WEST


CITY           SKY/WX    TMP DP  RH WIND       PRES   REMARKS
NIAGARA FALLS  CLEAR     27  20  75 E8        30.52R WCI  19
BUFFALO        PTCLDY    29  19  66 E7        30.52S WCI  22
DUNKIRK        CLEAR     31  18  58 CALM      30.48R
JAMESTOWN      CLEAR     30  14  51 SE8       30.44R WCI  23
WELLSVILLE     CLEAR     25  13  60 SE10      30.47F WCI  15
ROCHESTER      PTCLDY    28  18  66 E6        30.58S WCI  22
PENN YAN       CLEAR     24  18  77 CALM      30.57R
$$

             KEY
       WCI = WIND CHILL INDEX
       VSB = VISIBILITY
       HX  = HEAT INDEX
$$



USA.gov is the U.S. government's official web portal to all federal, state and local government web resources and services.